Weather reports worldwide

Advertisment
Redesdale Camp, United Kingdom (3230): temperature & dewpoint: 16.09.2018 14:00:00 - 22.09.2018 14:00:00 (BST)Redesdale Camp, United Kingdom (3230): temperature -20cm & temperature -100cm: 16.09.2018 14:00:00 - 22.09.2018 14:00:00 (BST)Redesdale Camp, United Kingdom (3230): wind speed & gusts: 16.09.2018 14:00:00 - 22.09.2018 14:00:00 (BST)Redesdale Camp, United Kingdom (3230): wind direction: 16.09.2018 14:00:00 - 22.09.2018 14:00:00 (BST)Redesdale Camp, United Kingdom (3230): reduced air pressure: 16.09.2018 14:00:00 - 22.09.2018 14:00:00 (BST)Redesdale Camp, United Kingdom (3230): visibility: 16.09.2018 14:00:00 - 22.09.2018 14:00:00 (BST)Redesdale Camp, United Kingdom (3230): precipitation: 16.09.2018 14:00:00 - 22.09.2018 14:00:00 (BST)
Date & Time tt [°C] td [°C] tt -20cm [°C] tt -100cm [°C] ff [km/h] ff [kn] fx [km/h] fx [kn] dd ppp [hPa] vv [km] rr [mm]
22.09.2018 14:00:00 11,7 5,2 - - 13 7 - - WSW 1014,2 - 0,0
22.09.2018 13:00:00 10,4 4,1 - - 13 7 - - WSW 1014,2 - 0,0
22.09.2018 12:00:00 10,0 4,6 - - 13 7 - - W 1014,1 - 0,0
22.09.2018 11:00:00 9,4 5,4 - - 13 7 - - WSW 1013,9 - 0,0
22.09.2018 10:00:00 8,5 5,0 12,9 13,7 16 9 - - WSW 1013,5 - 0,0
22.09.2018 09:00:00 7,3 4,7 - - 11 6 - - WSW 1013,2 - 0,0
22.09.2018 08:00:00 6,4 4,3 - - 15 8 - - WSW 1012,7 - 0,0
22.09.2018 07:00:00 5,7 4,0 - - 15 8 - - SW 1012,6 - 0,0
22.09.2018 06:00:00 6,2 4,0 - - 9 5 - - WSW 1012,4 - 0,0
22.09.2018 05:00:00 6,1 4,1 - - 5 3 - - W 1012,2 - 0,0
22.09.2018 04:00:00 6,1 4,2 - - 8 4 - - WSW 1012,0 - 0,0
22.09.2018 03:00:00 6,1 3,9 - - 9 5 - - W 1011,4 - 0,0
22.09.2018 02:00:00 6,3 3,9 - - 9 5 - - WSW 1011,0 - 0,0
22.09.2018 01:00:00 6,2 4,1 - - 9 5 - - W 1011,1 - 0,0
22.09.2018 00:00:00 5,9 4,2 - - 4 2 - - WSW 1010,7 - 0,0
21.09.2018 23:00:00 7,2 4,8 - - 11 6 - - WSW 1009,9 - 0,0
21.09.2018 22:00:00 7,4 5,2 - - 9 5 - - WSW 1008,9 - 0,0
21.09.2018 21:00:00 6,8 4,2 - - 5 3 - - W 1008,7 - 0,0
21.09.2018 20:00:00 7,9 4,6 - - 8 4 - - WSW 1007,6 - 0,0
21.09.2018 19:00:00 9,3 5,3 - - 8 4 - - WNW 1006,2 - 0,0
21.09.2018 18:00:00 9,9 6,7 - - 8 4 - - WNW 1005,0 - 0,0
21.09.2018 17:00:00 10,0 8,1 - - 11 6 - - NW 1003,6 - 1,2
21.09.2018 16:00:00 12,7 5,9 - - 13 7 - - W 1001,3 - 0,0
21.09.2018 15:00:00 10,8 4,7 - - 13 7 - - WNW 1000,2 - 0,0
21.09.2018 14:00:00 10,7 6,0 - - 15 8 - - W 999,0 - 0,0
21.09.2018 13:00:00 12,7 7,0 - - 15 8 50 27 WSW 997,4 - 0,0
21.09.2018 12:00:00 11,1 5,8 - - 21 11 48 26 WSW 996,6 - 0,0
21.09.2018 11:00:00 9,5 5,6 - - 22 12 50 27 WSW 996,0 - 0,0
21.09.2018 10:00:00 8,1 5,4 13,2 13,7 21 11 - - WSW 995,2 - 0,0
21.09.2018 09:00:00 6,4 5,0 - - 13 7 - - W 994,5 - 0,0
21.09.2018 08:00:00 5,8 4,8 - - 9 5 - - W 993,9 - 0,0
21.09.2018 07:00:00 5,0 3,9 - - 8 4 - - W 993,4 - 0,0
21.09.2018 06:00:00 5,0 4,1 - - 11 6 - - WNW 992,5 - 0,8
21.09.2018 05:00:00 5,1 4,5 - - 13 7 - - WNW 991,4 - 2,4
21.09.2018 04:00:00 5,1 4,1 - - 16 9 - - NW 990,7 - 4,4
21.09.2018 03:00:00 4,7 3,8 - - 26 14 52 28 NNW 989,9 - 1,2
21.09.2018 02:00:00 6,1 5,3 - - 18 10 57 31 NNW 989,6 - 1,2
21.09.2018 01:00:00 6,7 5,7 - - 21 11 - - N 989,7 - 2,6
21.09.2018 00:00:00 6,8 6,3 - - 15 8 - - NE 992,4 - 5,8
20.09.2018 23:00:00 6,7 6,2 - - 15 8 - - NNE 993,9 - 4,2
20.09.2018 22:00:00 6,3 5,9 - - 9 5 - - N 996,3 - 0,8
20.09.2018 21:00:00 6,7 6,0 - - 9 5 - - N 998,5 - 0,8
20.09.2018 20:00:00 7,1 5,8 - - 9 5 - - ENE 999,0 - 0,0
20.09.2018 19:00:00 7,8 6,1 - - 13 7 - - NE 999,8 - 0,4
20.09.2018 18:00:00 8,8 7,6 - - 5 3 - - E 1001,7 - 1,0
20.09.2018 17:00:00 10,1 6,8 - - 2 1 - - W 1002,8 - 0,0
20.09.2018 16:00:00 10,6 6,2 - - 5 3 - - SW 1003,9 - 0,0
20.09.2018 15:00:00 11,0 6,2 - - 5 3 - - SW 1004,6 - 0,0
20.09.2018 14:00:00 11,6 6,4 - - 13 7 - - SW 1005,2 - 0,0
20.09.2018 13:00:00 11,8 6,5 - - 18 10 - - SW 1005,6 - 0,0
20.09.2018 12:00:00 13,3 7,4 - - 15 8 - - SW 1005,9 - 0,0
20.09.2018 11:00:00 10,7 7,3 - - 18 10 - - SW 1006,5 - 0,0
20.09.2018 10:00:00 9,9 7,1 13,7 13,9 15 8 - - SW 1007,0 - 0,0
20.09.2018 09:00:00 9,6 7,6 - - 8 4 - - WSW 1006,9 - 0,0
20.09.2018 08:00:00 7,6 6,0 - - 11 6 - - SW 1006,9 - 0,0
20.09.2018 07:00:00 7,2 5,7 - - 16 9 - - SW 1006,3 - 0,0
20.09.2018 06:00:00 7,4 5,9 - - 18 10 - - SW 1005,9 - 0,0
20.09.2018 05:00:00 7,7 6,2 - - 22 12 - - SW 1005,8 - 0,0
20.09.2018 04:00:00 7,8 5,8 - - 21 11 - - SW 1005,8 - 0,0
20.09.2018 03:00:00 7,8 6,1 - - 22 12 46 25 SW 1005,8 - 0,0
20.09.2018 02:00:00 8,2 7,0 - - 28 15 61 33 SW 1005,2 - 3,0
20.09.2018 01:00:00 8,7 6,3 - - 26 14 46 25 SW 1005,0 - 0,0
20.09.2018 00:00:00 8,4 6,7 - - 24 13 61 33 SW 1004,3 - 0,2
19.09.2018 23:00:00 9,0 5,4 - - 26 14 57 31 SW 1003,5 - 0,0
19.09.2018 22:00:00 9,2 5,9 - - 34 18 61 33 SW 1002,9 - 0,0
19.09.2018 21:00:00 9,0 5,8 - - 39 21 74 40 SW 1002,7 - 0,2
19.09.2018 20:00:00 9,2 4,3 - - 34 18 59 32 SW 1001,9 - 0,0
19.09.2018 19:00:00 10,2 4,1 - - 34 18 83 45 WSW 1001,3 - 0,0
19.09.2018 18:00:00 11,4 5,7 - - 46 25 81 44 SW 999,8 - 0,0
19.09.2018 17:00:00 11,6 6,5 - - 48 26 91 49 SW 998,4 - 0,2
19.09.2018 16:00:00 12,1 6,3 - - 46 25 93 50 SW 996,8 - 0,0
19.09.2018 15:00:00 12,5 6,6 - - 50 27 91 49 SW 995,4 - 0,0
19.09.2018 14:00:00 13,3 6,4 - - 46 25 109 59 SW 994,0 - 0,4
19.09.2018 13:00:00 15,0 12,7 - - 44 24 81 44 SSW 992,3 - 1,8
19.09.2018 12:00:00 14,7 11,8 - - 50 27 93 50 SSW 992,3 - 0,2
19.09.2018 11:00:00 16,0 10,4 - - 41 22 68 37 SSW 993,4 - 0,0
19.09.2018 10:00:00 15,1 10,7 14,2 13,9 37 20 65 35 S 995,7 - 0,0
19.09.2018 09:00:00 12,8 10,0 - - 24 13 - - S 998,0 - 0,0
19.09.2018 08:00:00 12,2 9,4 - - 18 10 - - S 999,3 - 0,0
19.09.2018 07:00:00 10,4 7,9 - - 16 9 - - SSW 1001,1 - 0,0
19.09.2018 06:00:00 10,9 7,9 - - 16 9 54 29 S 1001,9 - 0,0
19.09.2018 05:00:00 12,2 9,1 - - 28 15 54 29 SW 1002,0 - 0,0
19.09.2018 04:00:00 12,5 9,4 - - 29 16 57 31 SW 1001,8 - 0,0
19.09.2018 03:00:00 13,1 9,0 - - 35 19 61 33 SW 1001,5 - 0,0
19.09.2018 02:00:00 13,2 9,7 - - 28 15 50 27 SW 1001,5 - 0,0
19.09.2018 01:00:00 13,7 10,6 - - 24 13 - - SW 1001,3 - 0,0
19.09.2018 00:00:00 14,3 11,5 - - 16 9 - - SSW 1001,3 - 0,0
18.09.2018 23:00:00 14,8 12,0 - - 26 14 46 25 SW 1001,0 - 0,0
18.09.2018 22:00:00 14,6 12,2 - - 26 14 52 28 SW 1000,8 - 0,0
18.09.2018 21:00:00 15,5 12,1 - - 26 14 - - SW 1000,2 - 0,0
18.09.2018 20:00:00 15,1 12,3 - - 18 10 - - S 1000,0 - 0,0
18.09.2018 19:00:00 14,5 12,5 - - 15 8 46 25 SSW 1000,0 - 0,0
18.09.2018 18:00:00 14,8 12,6 - - 28 15 57 31 SW 999,9 - 0,2
18.09.2018 17:00:00 14,6 12,1 - - 29 16 57 31 SW 999,5 0,6 0,0
18.09.2018 16:00:00 14,4 11,4 - - 34 18 59 32 SW 998,7 1,1 0,0
18.09.2018 15:00:00 14,5 11,5 - - 28 15 68 37 SW 998,9 4,0 0,0
18.09.2018 14:00:00 15,4 13,7 - - 37 20 63 34 SW 997,0 0,7 0,0
18.09.2018 13:00:00 16,0 15,0 - - 21 11 46 25 SW 996,0 5 0,2
18.09.2018 12:00:00 16,3 15,5 - - 24 13 - - SW 995,0 5 0,0
18.09.2018 11:00:00 14,1 13,6 - - 2 1 - - E 994,6 2,6 0,0
18.09.2018 10:00:00 13,0 12,7 14,2 13,9 4 2 - - E 994,2 3,3 0,2
18.09.2018 09:00:00 12,5 12,0 - - 8 4 - - SE 994,4 4,3 0,2
18.09.2018 08:00:00 12,5 11,8 - - 2 1 - - SSE 994,9 7 0,4
18.09.2018 07:00:00 12,6 11,5 - - 9 5 - - ESE 995,5 4,8 0,6
18.09.2018 06:00:00 13,2 11,0 - - 2 1 - - NE 996,1 35 0,0
18.09.2018 05:00:00 12,4 11,0 - - 4 2 - - E 997,5 40 0,0
18.09.2018 04:00:00 12,0 10,6 - - 4 2 - - E 998,7 35 0,0
18.09.2018 03:00:00 14,2 12,0 - - 9 5 - - SE 999,7 45 0,0
18.09.2018 02:00:00 14,7 12,3 - - 15 8 - - SSW 1000,3 50 0,0
18.09.2018 01:00:00 15,6 13,7 - - 9 5 - - S 1001,1 45 0,0
18.09.2018 00:00:00 15,6 13,7 - - 4 2 - - NNW 1001,7 50 0,0
17.09.2018 23:00:00 15,6 13,4 - - 8 4 - - SSW 1002,3 50 0,0
17.09.2018 22:00:00 16,2 13,7 - - 13 7 - - S 1002,8 50 0,0
17.09.2018 21:00:00 16,5 13,8 - - 13 7 - - S 1003,4 50 0,0
17.09.2018 20:00:00 16,7 13,9 - - 13 7 - - S 1003,4 50 0,0
17.09.2018 19:00:00 17,5 14,3 - - 22 12 - - SSW 1003,2 50 0,0
17.09.2018 18:00:00 17,5 15,1 - - 16 9 - - SSW 1003,8 50 0,0
17.09.2018 17:00:00 17,4 14,6 - - 21 11 - - SSW 1004,4 50 0,0
17.09.2018 16:00:00 17,4 13,9 - - 16 9 - - SSW 1005,5 50 0,0
17.09.2018 15:00:00 17,6 13,7 - - 15 8 - - S 1006,2 35 0,0
17.09.2018 14:00:00 15,8 11,6 - - 15 8 - - S 1007,5 50 0,0
17.09.2018 13:00:00 14,9 10,8 - - 11 6 - - S 1008,3 40 0,0
17.09.2018 12:00:00 14,7 11,1 - - 9 5 - - S 1009,6 50 0,0
17.09.2018 11:00:00 13,2 10,8 - - 9 5 - - SSE 1010,5 40 0,0
17.09.2018 10:00:00 12,9 10,8 14,0 14,0 11 6 - - S 1011,0 45 0,0
17.09.2018 09:00:00 11,7 11,3 - - 4 2 - - SSE 1011,5 35 0,0
17.09.2018 08:00:00 10,0 9,9 - - 8 4 - - SE 1012,0 21 0,0
17.09.2018 07:00:00 8,1 7,6 - - 8 4 - - SSE 1012,3 9 0,0
17.09.2018 06:00:00 9,7 8,9 - - 4 2 - - SSW 1012,4 30 0,0
17.09.2018 05:00:00 9,7 9,4 - - 2 1 - - NE 1012,6 29 0,0
17.09.2018 04:00:00 8,7 8,5 - - 4 2 - - NE 1013,1 28 0,0
17.09.2018 03:00:00 8,9 8,7 - - 4 2 - - NNW 1013,1 30 0,0
17.09.2018 02:00:00 8,3 8,0 - - 2 1 - - W 1013,3 30 0,0
17.09.2018 01:00:00 8,7 7,9 - - 2 1 - - NNE 1013,6 30 -
17.09.2018 00:00:00 10,0 8,7 - - 4 2 - - SE 1013,4 35 0,0
16.09.2018 23:00:00 11,2 9,5 - - 5 3 - - SSW 1013,2 35 0,0
16.09.2018 22:00:00 11,7 10,2 - - 8 4 - - SW 1013,4 35 0,0
16.09.2018 21:00:00 12,0 10,1 - - 9 5 - - WSW 1013,3 40 0,0
16.09.2018 20:00:00 12,2 10,1 - - 9 5 - - WSW 1012,9 35 0,0
16.09.2018 19:00:00 13,1 9,9 - - 15 8 - - SW 1012,4 40 0,0
16.09.2018 18:00:00 15,0 9,5 - - 13 7 - - WSW 1011,8 50 0,0
16.09.2018 17:00:00 15,0 9,7 - - 16 9 - - WSW 1011,4 50 0,0
16.09.2018 16:00:00 15,0 10,6 - - 16 9 - - SW 1011,0 50 0,0
16.09.2018 15:00:00 14,9 10,5 - - 16 9 - - SW 1010,6 50 0,0
16.09.2018 14:00:00 14,9 10,3 - - 21 11 - - SW 1009,9 50 0,0

tt = temperature
td = dewpoint
tt -20cm = temperature -20cm
tt -100cm = temperature -100cm
ff = wind speed
fx = gusts
dd = wind direction
ppp = reduced air pressure
vv = visibility
rr = precipitation

Next stations